Flag for U.S.A. Weather past 2 weeks in Post Falls, Idaho, U.S.A.

Now
36 °F

Overcast.


Feels Like: 30 °F
Forecast: 28 / 48 °F
Wind: 7 mph from Northeast

Location: Coeur d'Alene Weather Reporting System

Current Time: Feb 26, 2015 at 10:19:47 PM

Latest Report: Feb 26, 2015 at 9:55 PM


Visibility: 10 mi

Pressure: 29.92 "Hg

Humidity: 75%

Dew point: 28 °F

Location of Post FallsLocation

Historic Weather in Post Falls — Graph

°F

Post Falls temperature yesterday

Maximum temperature yesterday: 48 °F (at 1:55 PM)
Minimum temperature yesterday: 21 °F (at 3:55 AM)
Average temperature yesterday: 34 °F

Past Weeks' High & Low Weather Summary

 TemperatureHumidityPressure
High55 °F (Feb 12, 2:35 PM)100% (Feb 13, 10:55 PM)30.48 "Hg (Feb 13, 10:55 PM)
Low16 °F (Feb 22, 5:55 AM)13% (Feb 13, 10:35 PM)29.92 "Hg (Feb 26, 9:15 PM)
Average36 °F73%30.25 "Hg
* Reported Feb 11 9:15 PM — Feb 26 9:15 PM, Post Falls, Weather by CustomWeather, © 2015

Note: Actual official high and low records may vary slightly from our data, if they occured in-between our weather recording intervals... More about our weather records

Advertising

Post Falls weather history for previous 24 hours

 ConditionsComfort  
Time TempWeatherWind HumidityBarometerVisibility
9:15 PM
Thu, Feb 26
36 °FMostly cloudy.6 mph75%29.92 "Hg10 mi
8:35 PM36 °FOvercast.8 mph75%29.94 "Hg10 mi
8:15 PM36 °FMostly cloudy.6 mph75%29.94 "Hg10 mi
7:35 PM36 °FMostly cloudy.6 mph75%29.94 "Hg10 mi
7:15 PM37 °FOvercast.6 mph70%29.95 "Hg10 mi
6:55 PM37 °FOvercast.5 mph70%29.96 "Hg10 mi
6:35 PM37 °FPartly cloudy.5 mph65%29.96 "Hg10 mi
6:15 PM37 °FPartly cloudy.7 mph65%29.96 "Hg10 mi
5:55 PM37 °FOvercast.7 mph65%29.97 "Hg10 mi
5:35 PM39 °FMostly cloudy.8 mph61%29.97 "Hg10 mi
5:15 PM39 °FBroken clouds.7 mph61%29.97 "Hg10 mi
4:55 PM43 °FPassing clouds.10 mph57%29.98 "Hg10 mi
4:35 PM43 °FBroken clouds.9 mph57%29.98 "Hg10 mi
4:15 PM43 °FOvercast.9 mph53%29.99 "Hg10 mi
3:55 PM43 °FBroken clouds.9 mph53%29.99 "Hg10 mi
3:35 PM43 °FPartly sunny.8 mph53%29.99 "Hg10 mi
3:15 PM45 °FOvercast.10 mph49%30.00 "Hg10 mi
2:55 PM45 °FPartly sunny.8 mph53%30.00 "Hg10 mi
2:35 PM45 °FBroken clouds.7 mph49%30.01 "Hg10 mi
2:15 PM45 °FPartly sunny.5 mph49%30.02 "Hg10 mi
1:55 PM45 °FMostly cloudy.5 mph53%30.02 "Hg10 mi
1:35 PM45 °FPartly sunny.5 mph53%30.03 "Hg10 mi
1:15 PM46 °FScattered clouds.5 mph50%30.04 "Hg10 mi
12:55 PM45 °FScattered clouds.7 mph53%30.05 "Hg10 mi
12:35 PM45 °FMore clouds than sun.3 mph53%30.06 "Hg10 mi
12:15 PM45 °FMostly cloudy.7 mph53%30.07 "Hg10 mi
11:55 AM43 °FScattered clouds.8 mph61%30.07 "Hg10 mi
11:35 AM39 °FScattered clouds.8 mph61%30.09 "Hg10 mi
11:15 AM41 °FPassing clouds.10 mph61%30.09 "Hg10 mi
10:55 AM39 °FSunny.10 mph65%30.10 "Hg10 mi
10:35 AM39 °FPassing clouds.10 mph65%30.10 "Hg10 mi
10:15 AM37 °FScattered clouds.10 mph70%30.11 "Hg10 mi
9:55 AM37 °FPartly sunny.12 mph70%30.12 "Hg10 mi
9:35 AM36 °FScattered clouds.10 mph70%30.12 "Hg10 mi
9:15 AM36 °FScattered clouds.9 mph70%30.12 "Hg10 mi
8:55 AM34 °FScattered clouds.6 mph75%30.13 "Hg10 mi
8:35 AM34 °FScattered clouds.6 mph75%30.13 "Hg10 mi
8:15 AM30 °FPartly sunny.5 mph86%30.13 "Hg10 mi
7:55 AM30 °FBroken clouds.6 mph86%30.13 "Hg10 mi
7:35 AM30 °FBroken clouds.7 mph80%30.12 "Hg10 mi
7:15 AM30 °FScattered clouds.7 mph80%30.12 "Hg10 mi
6:55 AM28 °FOvercast.7 mph80%30.12 "Hg10 mi
6:35 AM28 °FOvercast.7 mph80%30.12 "Hg10 mi
6:15 AM27 °FPassing clouds.7 mph80%30.12 "Hg10 mi
5:55 AM25 °FClear.6 mph80%30.12 "Hg10 mi
5:35 AM27 °FClear.7 mph80%30.12 "Hg10 mi
5:15 AM27 °FClear.7 mph80%30.12 "Hg10 mi
4:55 AM27 °FClear.7 mph74%30.12 "Hg10 mi
4:35 AM27 °FClear.N/A80%30.12 "Hg10 mi
4:15 AM27 °FClear.3 mph74%30.12 "Hg10 mi
3:55 AM27 °FClear.3 mph80%30.12 "Hg10 mi
3:35 AM27 °FClear.3 mph80%30.12 "Hg10 mi
3:15 AM28 °FClear.5 mph74%30.11 "Hg10 mi
2:55 AM27 °FClear.7 mph80%30.11 "Hg10 mi
2:35 AM27 °FClear.7 mph80%30.11 "Hg10 mi
2:15 AM27 °FClear.6 mph86%30.11 "Hg10 mi
1:55 AM28 °FClear.5 mph74%30.12 "Hg10 mi
1:35 AM28 °FClear.3 mph80%30.12 "Hg10 mi
1:15 AM28 °FClear.No wind74%30.12 "Hg10 mi
12:55 AM28 °FClear.No wind80%30.12 "Hg10 mi
12:35 AM28 °FClear.No wind74%30.12 "Hg10 mi
12:15 AM30 °FClear.No wind75%30.13 "Hg10 mi
11:55 PM
Wed, Feb 25
30 °FClear.No wind75%30.13 "Hg10 mi
11:35 PM30 °FClear.No wind75%30.13 "Hg10 mi
11:15 PM30 °FClear.No wind75%30.13 "Hg10 mi
10:55 PM32 °FClear.No wind75%30.13 "Hg10 mi
10:15 PM34 °FClear.No wind70%30.14 "Hg10 mi
Weather by CustomWeather, © 2015

See weather overviewHow to use our weather pages